Year,Month,Day,Hour,Minute,Value (Times are PST for windspeed in km/hr)
2010,11,23,00,00,32.00
2010,11,23,00,01,29.50
2010,11,23,00,02,23.50
2010,11,23,00,03,23.30
2010,11,23,00,04,16.70
2010,11,23,00,05,32.30
2010,11,23,00,06,23.80
2010,11,23,00,07,27.60
2010,11,23,00,08,24.70
2010,11,23,00,09,18.10
2010,11,23,00,10,14.10
2010,11,23,00,11,19.00
2010,11,23,00,12,19.30
2010,11,23,00,13,20.50
2010,11,23,00,14,23.50
2010,11,23,00,15,35.10
2010,11,23,00,16,36.10
2010,11,23,00,17,26.20
2010,11,23,00,18,29.30
2010,11,23,00,19,46.40
2010,11,23,00,20,42.30
2010,11,23,00,21,20.10
2010,11,23,00,22,29.60
2010,11,23,00,23,24.70
2010,11,23,00,24,25.50
2010,11,23,00,25,29.20
2010,11,23,00,26,34.60
2010,11,23,00,27,32.00
2010,11,23,00,28,23.30
2010,11,23,00,29,29.40
2010,11,23,00,30,20.90
2010,11,23,00,31,23.00
2010,11,23,00,32,27.10
2010,11,23,00,33,32.30
2010,11,23,00,34,26.20
2010,11,23,00,35,19.40
2010,11,23,00,36,27.60
2010,11,23,00,37,28.90
2010,11,23,00,38,27.90
2010,11,23,00,39,32.10
2010,11,23,00,40,32.50
2010,11,23,00,41,10.70
2010,11,23,00,42,20.90
2010,11,23,00,43,28.40
2010,11,23,00,44,18.00
2010,11,23,00,45,18.60
2010,11,23,00,46,26.40
2010,11,23,00,47,25.80
2010,11,23,00,48,29.80
2010,11,23,00,49,26.30
2010,11,23,00,50,17.60
2010,11,23,00,51,29.30
2010,11,23,00,52,23.50
2010,11,23,00,53,22.20
2010,11,23,00,54,23.90
2010,11,23,00,55,24.10
2010,11,23,00,56,35.30
2010,11,23,00,57,35.20
2010,11,23,00,58,21.50
2010,11,23,00,59,19.00
2010,11,23,01,00,26.90
2010,11,23,01,01,32.20
2010,11,23,01,02,27.60
2010,11,23,01,03,33.30
2010,11,23,01,04,27.10
2010,11,23,01,05,30.80
2010,11,23,01,06,41.30
2010,11,23,01,07,27.90
2010,11,23,01,08,33.20
2010,11,23,01,09,23.40
2010,11,23,01,10,24.10
2010,11,23,01,11,21.70
2010,11,23,01,12,30.60
2010,11,23,01,13,34.50
2010,11,23,01,14,29.10
2010,11,23,01,15,23.40
2010,11,23,01,16,29.00
2010,11,23,01,17,33.10
2010,11,23,01,18,32.00
2010,11,23,01,19,21.70
2010,11,23,01,20,35.30
2010,11,23,01,21,38.70
2010,11,23,01,22,27.70
2010,11,23,01,23,19.70
2010,11,23,01,24,31.10
2010,11,23,01,25,33.40
2010,11,23,01,26,28.90
2010,11,23,01,27,29.60
2010,11,23,01,28,25.30
2010,11,23,01,29,18.00
2010,11,23,01,30,19.50
2010,11,23,01,31,22.00
2010,11,23,01,32,18.10
2010,11,23,01,33,31.20
2010,11,23,01,34,26.10
2010,11,23,01,35,20.10
2010,11,23,01,36,15.70
2010,11,23,01,37,30.20
2010,11,23,01,38,29.10
2010,11,23,01,39,30.80
2010,11,23,01,40,20.60
2010,11,23,01,41,29.30
2010,11,23,01,42,25.70
2010,11,23,01,43,28.80
2010,11,23,01,44,25.10
2010,11,23,01,45,26.50
2010,11,23,01,46,20.90
2010,11,23,01,47,16.40
2010,11,23,01,48,20.90
2010,11,23,01,49,25.90
2010,11,23,01,50,27.70
2010,11,23,01,51,22.00
2010,11,23,01,52,25.10
2010,11,23,01,53,26.80
2010,11,23,01,54,23.80
2010,11,23,01,55,21.50
2010,11,23,01,56,21.50
2010,11,23,01,57,22.20
2010,11,23,01,58,23.40
2010,11,23,01,59,24.30
2010,11,23,02,00,23.30
2010,11,23,02,01,20.60
2010,11,23,02,02,15.30
2010,11,23,02,03,24.60
2010,11,23,02,04,21.10
2010,11,23,02,05,29.50
2010,11,23,02,06,24.40
2010,11,23,02,07,21.50
2010,11,23,02,08,31.40
2010,11,23,02,09,20.30
2010,11,23,02,10,25.50
2010,11,23,02,11,34.50
2010,11,23,02,12,21.30
2010,11,23,02,13,19.80
2010,11,23,02,14,24.50
2010,11,23,02,15,21.30
2010,11,23,02,16,23.00
2010,11,23,02,17,22.30
2010,11,23,02,18,17.60
2010,11,23,02,19,15.40
2010,11,23,02,20,21.10
2010,11,23,02,21,18.80
2010,11,23,02,22,24.30
2010,11,23,02,23,25.10
2010,11,23,02,24,26.00
2010,11,23,02,25,32.60
2010,11,23,02,26,31.60
2010,11,23,02,27,16.90
2010,11,23,02,28,21.60
2010,11,23,02,29,25.00
2010,11,23,02,30,27.60
2010,11,23,02,31,21.60
2010,11,23,02,32,21.10
2010,11,23,02,33,19.20
2010,11,23,02,34,16.70
2010,11,23,02,35,19.80
2010,11,23,02,36,19.90
2010,11,23,02,37,17.50
2010,11,23,02,38,23.90
2010,11,23,02,39,12.20
2010,11,23,02,40,16.00
2010,11,23,02,41,17.70
2010,11,23,02,42,19.80
2010,11,23,02,43,17.20
2010,11,23,02,44,14.40
2010,11,23,02,45,13.30
2010,11,23,02,46,23.60
2010,11,23,02,47,20.40
2010,11,23,02,48,20.00
2010,11,23,02,49,26.90
2010,11,23,02,50,21.00
2010,11,23,02,51,23.30
2010,11,23,02,52,18.50
2010,11,23,02,53,14.30
2010,11,23,02,54,10.70
2010,11,23,02,55,15.30
2010,11,23,02,56,15.00
2010,11,23,02,57,13.90
2010,11,23,02,58,18.00
2010,11,23,02,59,17.30
2010,11,23,03,00,21.90
2010,11,23,03,01,25.00
2010,11,23,03,02,29.80
2010,11,23,03,03,33.10
2010,11,23,03,04,20.40
2010,11,23,03,05,17.50
2010,11,23,03,06,11.60
2010,11,23,03,07,14.60
2010,11,23,03,08,20.20
2010,11,23,03,09,11.40
2010,11,23,03,10,24.90
2010,11,23,03,11,16.40
2010,11,23,03,12,18.30
2010,11,23,03,13,27.60
2010,11,23,03,14,18.80
2010,11,23,03,15,14.30
2010,11,23,03,16,10.80
2010,11,23,03,17,16.60
2010,11,23,03,18,13.30
2010,11,23,03,19,20.10
2010,11,23,03,20,21.30
2010,11,23,03,21,19.70
2010,11,23,03,22,15.70
2010,11,23,03,23,15.80
2010,11,23,03,24,19.00
2010,11,23,03,25,17.70
2010,11,23,03,26,20.90
2010,11,23,03,27,20.00
2010,11,23,03,28,20.90
2010,11,23,03,29,23.40
2010,11,23,03,30,21.60
2010,11,23,03,31,31.00
2010,11,23,03,32,27.40
2010,11,23,03,33,21.80
2010,11,23,03,34,24.60
2010,11,23,03,35,17.50
2010,11,23,03,36,15.10
2010,11,23,03,37,22.20
2010,11,23,03,38,24.10
2010,11,23,03,39,29.80
2010,11,23,03,40,20.20
2010,11,23,03,41,18.00
2010,11,23,03,42,12.70
2010,11,23,03,43,13.80
2010,11,23,03,44,11.30
2010,11,23,03,45,19.10
2010,11,23,03,46,18.40
2010,11,23,03,47,22.90
2010,11,23,03,48,15.60
2010,11,23,03,49,19.00
2010,11,23,03,50,16.20
2010,11,23,03,51,22.20
2010,11,23,03,52,23.90
2010,11,23,03,53,14.30
2010,11,23,03,54,14.60
2010,11,23,03,55,11.30
2010,11,23,03,56,6.70
2010,11,23,03,57,15.40
2010,11,23,03,58,25.70
2010,11,23,03,59,20.00
2010,11,23,04,00,28.20
2010,11,23,04,01,24.90
2010,11,23,04,02,20.60
2010,11,23,04,03,23.60
2010,11,23,04,04,21.10
2010,11,23,04,05,13.20
2010,11,23,04,06,19.00
2010,11,23,04,07,30.20
2010,11,23,04,08,28.50
2010,11,23,04,09,20.40
2010,11,23,04,10,9.30
2010,11,23,04,11,16.60
2010,11,23,04,12,16.50
2010,11,23,04,13,11.00
2010,11,23,04,14,20.10
2010,11,23,04,15,22.90
2010,11,23,04,16,16.20
2010,11,23,04,17,27.20
2010,11,23,04,18,13.90
2010,11,23,04,19,17.10
2010,11,23,04,20,26.50
2010,11,23,04,21,22.20
2010,11,23,04,22,19.20
2010,11,23,04,23,21.30
2010,11,23,04,24,11.30
2010,11,23,04,25,15.20
2010,11,23,04,26,20.10
2010,11,23,04,27,16.10
2010,11,23,04,28,12.90
2010,11,23,04,29,14.40
2010,11,23,04,30,16.60
2010,11,23,04,31,16.40
2010,11,23,04,32,15.70
2010,11,23,04,33,14.30
2010,11,23,04,34,18.00
2010,11,23,04,35,8.50
2010,11,23,04,36,15.10
2010,11,23,04,37,17.30
2010,11,23,04,38,13.90
2010,11,23,04,39,12.40
2010,11,23,04,40,13.90
2010,11,23,04,41,16.30
2010,11,23,04,42,20.70
2010,11,23,04,43,16.20
2010,11,23,04,44,15.30
2010,11,23,04,45,9.60
2010,11,23,04,46,15.80
2010,11,23,04,47,11.30
2010,11,23,04,48,11.70
2010,11,23,04,49,16.70
2010,11,23,04,50,7.80
2010,11,23,04,51,15.30
2010,11,23,04,52,13.90
2010,11,23,04,53,10.90
2010,11,23,04,54,13.30
2010,11,23,04,55,12.50
2010,11,23,04,56,13.20
2010,11,23,04,57,10.80
2010,11,23,04,58,16.40
2010,11,23,04,59,17.50
2010,11,23,05,00,13.20
2010,11,23,05,01,13.90
2010,11,23,05,02,20.70
2010,11,23,05,03,16.40
2010,11,23,05,04,17.80
2010,11,23,05,05,18.00
2010,11,23,05,06,14.60
2010,11,23,05,07,12.40
2010,11,23,05,08,11.60
2010,11,23,05,09,24.50
2010,11,23,05,10,17.50
2010,11,23,05,11,11.70
2010,11,23,05,12,14.80
2010,11,23,05,13,14.80
2010,11,23,05,14,21.90
2010,11,23,05,15,16.00
2010,11,23,05,16,14.10
2010,11,23,05,17,13.30
2010,11,23,05,18,16.50
2010,11,23,05,19,10.20
2010,11,23,05,20,8.90
2010,11,23,05,21,12.80
2010,11,23,05,22,11.10
2010,11,23,05,23,16.40
2010,11,23,05,24,9.70
2010,11,23,05,25,16.40
2010,11,23,05,26,22.20
2010,11,23,05,27,11.40
2010,11,23,05,28,13.50
2010,11,23,05,29,14.80
2010,11,23,05,30,15.60
2010,11,23,05,31,16.70
2010,11,23,05,32,18.00
2010,11,23,05,33,19.00
2010,11,23,05,34,13.40
2010,11,23,05,35,23.20
2010,11,23,05,36,12.50
2010,11,23,05,37,9.70
2010,11,23,05,38,12.60
2010,11,23,05,39,15.30
2010,11,23,05,40,9.30
2010,11,23,05,41,13.00
2010,11,23,05,42,13.40
2010,11,23,05,43,13.30
2010,11,23,05,44,10.10
2010,11,23,05,45,10.10
2010,11,23,05,46,10.60
2010,11,23,05,47,10.10
2010,11,23,05,48,15.60
2010,11,23,05,49,15.50
2010,11,23,05,50,11.60
2010,11,23,05,51,10.50
2010,11,23,05,52,17.60
2010,11,23,05,53,15.30
2010,11,23,05,54,14.30
2010,11,23,05,55,12.20
2010,11,23,05,56,10.80
2010,11,23,05,57,12.50
2010,11,23,05,58,13.20
2010,11,23,05,59,16.70
2010,11,23,06,00,17.70
2010,11,23,06,01,17.40
2010,11,23,06,02,18.70
2010,11,23,06,03,14.60
2010,11,23,06,04,18.10
2010,11,23,06,05,9.80
2010,11,23,06,06,18.50
2010,11,23,06,07,16.20
2010,11,23,06,08,8.40
2010,11,23,06,09,9.70
2010,11,23,06,10,17.40
2010,11,23,06,11,12.70
2010,11,23,06,12,15.90
2010,11,23,06,13,13.20
2010,11,23,06,14,11.80
2010,11,23,06,15,11.40
2010,11,23,06,16,15.80
2010,11,23,06,17,12.20
2010,11,23,06,18,14.30
2010,11,23,06,19,7.00
2010,11,23,06,20,8.50
2010,11,23,06,21,10.50
2010,11,23,06,22,14.00
2010,11,23,06,23,8.20
2010,11,23,06,24,9.70
2010,11,23,06,25,13.50
2010,11,23,06,26,9.00
2010,11,23,06,27,10.30
2010,11,23,06,28,6.90
2010,11,23,06,29,20.80
2010,11,23,06,30,19.40
2010,11,23,06,31,15.90
2010,11,23,06,32,14.00
2010,11,23,06,33,16.80
2010,11,23,06,34,21.00
2010,11,23,06,35,21.90
2010,11,23,06,36,12.50
2010,11,23,06,37,14.60
2010,11,23,06,38,17.40
2010,11,23,06,39,14.90
2010,11,23,06,40,20.90
2010,11,23,06,41,13.90
2010,11,23,06,42,18.30
2010,11,23,06,43,22.20
2010,11,23,06,44,13.80
2010,11,23,06,45,14.70
2010,11,23,06,46,16.00
2010,11,23,06,47,12.10
2010,11,23,06,48,19.10
2010,11,23,06,49,13.80
2010,11,23,06,50,16.80
2010,11,23,06,51,23.00
2010,11,23,06,52,21.50
2010,11,23,06,53,13.70
2010,11,23,06,54,14.50
2010,11,23,06,55,15.20
2010,11,23,06,56,13.50
2010,11,23,06,57,15.70
2010,11,23,06,58,13.70
2010,11,23,06,59,13.60
2010,11,23,07,00,12.10
2010,11,23,07,01,15.40
2010,11,23,07,02,13.70
2010,11,23,07,03,15.40
2010,11,23,07,04,13.70
2010,11,23,07,05,11.90
2010,11,23,07,06,17.10
2010,11,23,07,07,16.90
2010,11,23,07,08,16.30
2010,11,23,07,09,9.10
2010,11,23,07,10,10.80
2010,11,23,07,11,16.00
2010,11,23,07,12,14.10
2010,11,23,07,13,13.60
2010,11,23,07,14,14.60
2010,11,23,07,15,12.20
2010,11,23,07,16,8.00
2010,11,23,07,17,13.00
2010,11,23,07,18,10.50
2010,11,23,07,19,10.40
2010,11,23,07,20,11.10
2010,11,23,07,21,10.80
2010,11,23,07,22,10.80
2010,11,23,07,23,7.10
2010,11,23,07,24,8.70
2010,11,23,07,25,8.80
2010,11,23,07,26,13.00
2010,11,23,07,27,10.80
2010,11,23,07,28,5.70
2010,11,23,07,29,10.50
2010,11,23,07,30,13.70
2010,11,23,07,31,10.80
2010,11,23,07,32,8.10
2010,11,23,07,33,6.90
2010,11,23,07,34,7.10
2010,11,23,07,35,8.60
2010,11,23,07,36,14.40
2010,11,23,07,37,12.20
2010,11,23,07,38,11.50
2010,11,23,07,39,8.40
2010,11,23,07,40,11.60
2010,11,23,07,41,14.30
2010,11,23,07,42,15.10
2010,11,23,07,43,14.20
2010,11,23,07,44,11.10
2010,11,23,07,45,17.90
2010,11,23,07,46,13.60
2010,11,23,07,47,7.30
2010,11,23,07,48,8.50
2010,11,23,07,49,9.40
2010,11,23,07,50,11.90
2010,11,23,07,51,10.70
2010,11,23,07,52,7.70
2010,11,23,07,53,8.50
2010,11,23,07,54,9.60
2010,11,23,07,55,10.60
2010,11,23,07,56,9.90
2010,11,23,07,57,10.60
2010,11,23,07,58,10.30
2010,11,23,07,59,12.20
2010,11,23,08,00,12.30
2010,11,23,08,01,9.60
2010,11,23,08,02,5.60
2010,11,23,08,03,10.40
2010,11,23,08,04,12.30
2010,11,23,08,05,13.60
2010,11,23,08,06,11.40
2010,11,23,08,07,10.50
2010,11,23,08,08,7.70
2010,11,23,08,09,8.70
2010,11,23,08,10,6.60
2010,11,23,08,11,11.20
2010,11,23,08,12,11.80
2010,11,23,08,13,8.60
2010,11,23,08,14,10.90
2010,11,23,08,15,8.10
2010,11,23,08,16,3.90
2010,11,23,08,17,10.90
2010,11,23,08,18,10.20
2010,11,23,08,19,11.80
2010,11,23,08,20,7.80
2010,11,23,08,21,9.00
2010,11,23,08,22,7.60
2010,11,23,08,23,11.20
2010,11,23,08,24,12.00
2010,11,23,08,25,11.80
2010,11,23,08,26,10.40
2010,11,23,08,27,8.10
2010,11,23,08,28,9.10
2010,11,23,08,29,5.00
2010,11,23,08,30,9.50
2010,11,23,08,31,8.40
2010,11,23,08,32,9.10
2010,11,23,08,33,11.40
2010,11,23,08,34,7.90
2010,11,23,08,35,6.30
2010,11,23,08,36,7.00
2010,11,23,08,37,7.00
2010,11,23,08,38,10.00
2010,11,23,08,39,8.30
2010,11,23,08,40,6.90
2010,11,23,08,41,4.10
2010,11,23,08,42,7.00
2010,11,23,08,43,5.50
2010,11,23,08,44,10.30
2010,11,23,08,45,8.90
2010,11,23,08,46,8.40
2010,11,23,08,47,5.20
2010,11,23,08,48,7.40
2010,11,23,08,49,12.00
2010,11,23,08,50,11.10
2010,11,23,08,51,6.20
2010,11,23,08,52,8.40
2010,11,23,08,53,4.80
2010,11,23,08,54,3.60
2010,11,23,08,55,4.60
2010,11,23,08,56,4.60
2010,11,23,08,57,5.30
2010,11,23,08,58,6.40
2010,11,23,08,59,8.10
2010,11,23,09,00,9.10
2010,11,23,09,01,5.80
2010,11,23,09,02,6.80
2010,11,23,09,03,6.20
2010,11,23,09,04,3.50
2010,11,23,09,05,2.90
2010,11,23,09,06,1.20
2010,11,23,09,07,5.80
2010,11,23,09,08,2.90
2010,11,23,09,09,6.70
2010,11,23,09,10,9.70
2010,11,23,09,11,5.90
2010,11,23,09,12,1.70
2010,11,23,09,13,2.80
2010,11,23,09,14,5.20
2010,11,23,09,15,4.20
2010,11,23,09,16,8.80
2010,11,23,09,17,10.10
2010,11,23,09,18,7.60
2010,11,23,09,19,6.60
2010,11,23,09,20,2.30
2010,11,23,09,21,3.10
2010,11,23,09,22,2.10
2010,11,23,09,23,4.80
2010,11,23,09,24,9.10
2010,11,23,09,25,10.80
2010,11,23,09,26,7.00
2010,11,23,09,27,1.70
2010,11,23,09,28,4.90
2010,11,23,09,29,7.00
2010,11,23,09,30,5.70
2010,11,23,09,31,6.90
2010,11,23,09,32,8.30
2010,11,23,09,33,5.00
2010,11,23,09,34,8.00
2010,11,23,09,35,7.70
2010,11,23,09,36,9.10
2010,11,23,09,37,4.30
2010,11,23,09,38,1.80
2010,11,23,09,39,2.90
2010,11,23,09,40,0.90
2010,11,23,09,41,3.80
2010,11,23,09,42,5.00
2010,11,23,09,43,2.80
2010,11,23,09,44,3.10
2010,11,23,09,45,4.20
2010,11,23,09,46,1.80
2010,11,23,09,47,2.60
2010,11,23,09,48,2.90
2010,11,23,09,49,1.80
2010,11,23,09,50,3.90
2010,11,23,09,51,4.40
2010,11,23,09,52,2.10
2010,11,23,09,53,6.60
2010,11,23,09,54,7.20
2010,11,23,09,55,5.80
2010,11,23,09,56,9.20
2010,11,23,09,57,7.40
2010,11,23,09,58,9.50
2010,11,23,09,59,4.00
2010,11,23,10,00,3.10
2010,11,23,10,01,6.60
2010,11,23,10,02,5.00
2010,11,23,10,03,5.60
2010,11,23,10,04,6.00
2010,11,23,10,05,3.60
2010,11,23,10,06,6.60
2010,11,23,10,07,12.40
2010,11,23,10,08,15.40
2010,11,23,10,09,10.10
2010,11,23,10,10,6.40
2010,11,23,10,11,4.80
2010,11,23,10,12,3.80
2010,11,23,10,13,5.80
2010,11,23,10,14,3.20
2010,11,23,10,15,3.60
2010,11,23,10,16,3.40
2010,11,23,10,17,7.20
2010,11,23,10,18,12.70
2010,11,23,10,19,9.50
2010,11,23,10,20,9.40
2010,11,23,10,21,7.30
2010,11,23,10,22,4.40
2010,11,23,10,23,8.00
2010,11,23,10,24,8.30
2010,11,23,10,25,10.50
2010,11,23,10,26,8.20
2010,11,23,10,27,4.40
2010,11,23,10,28,4.00
2010,11,23,10,29,2.40
2010,11,23,10,30,2.80
2010,11,23,10,31,7.80
2010,11,23,10,32,14.00
2010,11,23,10,33,12.90
2010,11,23,10,34,9.50
2010,11,23,10,35,6.70
2010,11,23,10,36,9.50
2010,11,23,10,37,5.00
2010,11,23,10,38,5.00
2010,11,23,10,39,7.50
2010,11,23,10,40,5.70
2010,11,23,10,41,5.80
2010,11,23,10,42,7.30
2010,11,23,10,43,10.40
2010,11,23,10,44,4.80
2010,11,23,10,45,2.60
2010,11,23,10,46,2.60
2010,11,23,10,47,4.30
2010,11,23,10,48,3.20
2010,11,23,10,49,4.10
2010,11,23,10,50,5.30
2010,11,23,10,51,13.20
2010,11,23,10,52,6.10
2010,11,23,10,53,5.60
2010,11,23,10,54,8.80
2010,11,23,10,55,11.60
2010,11,23,10,56,7.60
2010,11,23,10,57,6.40
2010,11,23,10,58,2.50
2010,11,23,10,59,3.00
2010,11,23,11,00,8.50
2010,11,23,11,01,5.50
2010,11,23,11,02,7.80
2010,11,23,11,03,10.10
2010,11,23,11,04,8.90
2010,11,23,11,05,5.60
2010,11,23,11,06,2.80
2010,11,23,11,07,4.80
2010,11,23,11,08,3.40
2010,11,23,11,09,1.30
2010,11,23,11,10,3.20
2010,11,23,11,11,4.30
2010,11,23,11,12,3.90
2010,11,23,11,13,5.40
2010,11,23,11,14,3.30
2010,11,23,11,15,3.30
2010,11,23,11,16,6.80
2010,11,23,11,17,7.70
2010,11,23,11,18,5.30
2010,11,23,11,19,10.10
2010,11,23,11,20,11.00
2010,11,23,11,21,7.10
2010,11,23,11,22,7.60
2010,11,23,11,23,6.10
2010,11,23,11,24,2.70
2010,11,23,11,25,5.70
2010,11,23,11,26,6.90
2010,11,23,11,27,6.20
2010,11,23,11,28,6.60
2010,11,23,11,29,9.30
2010,11,23,11,30,11.30
2010,11,23,11,31,10.60
2010,11,23,11,32,7.50
2010,11,23,11,33,5.50
2010,11,23,11,34,3.80
2010,11,23,11,35,4.60
2010,11,23,11,36,4.50
2010,11,23,11,37,2.50
2010,11,23,11,38,4.40
2010,11,23,11,39,8.70
2010,11,23,11,40,7.00
2010,11,23,11,41,4.50
2010,11,23,11,42,7.90
2010,11,23,11,43,8.40
2010,11,23,11,44,4.00
2010,11,23,11,45,7.70
2010,11,23,11,46,4.80
2010,11,23,11,47,5.20
2010,11,23,11,48,7.80
2010,11,23,11,49,10.00
2010,11,23,11,50,9.70
2010,11,23,11,51,5.80
2010,11,23,11,52,6.40
2010,11,23,11,53,4.40
2010,11,23,11,54,4.40
2010,11,23,11,55,3.60
2010,11,23,11,56,10.70
2010,11,23,11,57,15.80
2010,11,23,11,58,11.70
2010,11,23,11,59,6.40
2010,11,23,12,00,7.80
2010,11,23,12,01,3.50
2010,11,23,12,02,4.20
2010,11,23,12,03,1.40
2010,11,23,12,04,2.00
2010,11,23,12,05,1.60
2010,11,23,12,06,0.60
2010,11,23,12,07,0.60
2010,11,23,12,08,1.60
2010,11,23,12,09,1.10
2010,11,23,12,10,2.00
2010,11,23,12,11,1.40
2010,11,23,12,12,3.60
2010,11,23,12,13,10.10
2010,11,23,12,14,9.70
2010,11,23,12,15,12.30
2010,11,23,12,16,11.90
2010,11,23,12,17,15.60
2010,11,23,12,18,15.80
2010,11,23,12,19,8.90
2010,11,23,12,20,1.10
2010,11,23,12,21,9.60
2010,11,23,12,22,10.50
2010,11,23,12,23,7.80
2010,11,23,12,24,10.70
2010,11,23,12,25,8.60
2010,11,23,12,26,9.20
2010,11,23,12,27,7.70
2010,11,23,12,28,8.20
2010,11,23,12,29,6.40
2010,11,23,12,30,5.70
2010,11,23,12,31,7.60
2010,11,23,12,32,6.20
2010,11,23,12,33,6.70
2010,11,23,12,34,9.40
2010,11,23,12,35,6.30
2010,11,23,12,36,3.40
2010,11,23,12,37,3.10
2010,11,23,12,38,5.00
2010,11,23,12,39,2.00
2010,11,23,12,40,5.60
2010,11,23,12,41,6.00
2010,11,23,12,42,4.00
2010,11,23,12,43,5.10
2010,11,23,12,44,7.40
2010,11,23,12,45,9.10
2010,11,23,12,46,6.80
2010,11,23,12,47,4.10
2010,11,23,12,48,3.10
2010,11,23,12,49,7.30
2010,11,23,12,50,2.50
2010,11,23,12,51,4.30
2010,11,23,12,52,7.00
2010,11,23,12,53,6.70
2010,11,23,12,54,4.10
2010,11,23,12,55,3.60
2010,11,23,12,56,7.60
2010,11,23,12,57,6.70
2010,11,23,12,58,5.50
2010,11,23,12,59,7.80
2010,11,23,13,00,8.50
2010,11,23,13,01,9.50
2010,11,23,13,02,12.30
2010,11,23,13,03,9.90
2010,11,23,13,04,9.40
2010,11,23,13,05,8.20
2010,11,23,13,06,10.40
2010,11,23,13,07,3.30
2010,11,23,13,08,3.90
2010,11,23,13,09,5.20
2010,11,23,13,10,5.80
2010,11,23,13,11,8.70
2010,11,23,13,12,6.50
2010,11,23,13,13,5.70
2010,11,23,13,14,7.20
2010,11,23,13,15,6.40
2010,11,23,13,16,2.40
2010,11,23,13,17,4.50
2010,11,23,13,18,8.90
2010,11,23,13,19,5.00
2010,11,23,13,20,5.90
2010,11,23,13,21,7.00
2010,11,23,13,22,5.90
2010,11,23,13,23,4.70
2010,11,23,13,24,3.50
2010,11,23,13,25,3.00
2010,11,23,13,26,4.20
2010,11,23,13,27,7.10
2010,11,23,13,28,8.00
2010,11,23,13,29,9.10
2010,11,23,13,30,6.40
2010,11,23,13,31,5.90
2010,11,23,13,32,4.10
2010,11,23,13,33,3.60
2010,11,23,13,34,4.50
2010,11,23,13,35,6.50
2010,11,23,13,36,4.90
2010,11,23,13,37,4.60
2010,11,23,13,38,5.40
2010,11,23,13,39,10.30
2010,11,23,13,40,9.40
2010,11,23,13,41,5.00
2010,11,23,13,42,6.10
2010,11,23,13,43,5.40
2010,11,23,13,44,2.00
2010,11,23,13,45,2.70
2010,11,23,13,46,5.60
2010,11,23,13,47,1.80
2010,11,23,13,48,4.50
2010,11,23,13,49,3.40
2010,11,23,13,50,2.90
2010,11,23,13,51,6.10
2010,11,23,13,52,9.30
2010,11,23,13,53,6.20
2010,11,23,13,54,4.40
2010,11,23,13,55,5.80
2010,11,23,13,56,7.20
2010,11,23,13,57,6.00
2010,11,23,13,58,7.50
2010,11,23,13,59,9.90
2010,11,23,14,00,5.10
2010,11,23,14,01,4.80
2010,11,23,14,02,5.70
2010,11,23,14,03,4.20
2010,11,23,14,04,5.10
2010,11,23,14,05,3.30
2010,11,23,14,06,0.70
2010,11,23,14,07,2.80
2010,11,23,14,08,3.70
2010,11,23,14,09,2.70
2010,11,23,14,10,4.50
2010,11,23,14,11,2.90
2010,11,23,14,12,0.50
2010,11,23,14,13,0.70
2010,11,23,14,14,1.30
2010,11,23,14,15,2.90
2010,11,23,14,16,4.80
2010,11,23,14,17,8.70
2010,11,23,14,18,7.80
2010,11,23,14,19,9.70
2010,11,23,14,20,9.10
2010,11,23,14,21,4.70
2010,11,23,14,22,6.60
2010,11,23,14,23,5.70
2010,11,23,14,24,5.00
2010,11,23,14,25,6.40
2010,11,23,14,26,5.10
2010,11,23,14,27,4.00
2010,11,23,14,28,8.70
2010,11,23,14,29,7.80
2010,11,23,14,30,5.00
2010,11,23,14,31,4.00
2010,11,23,14,32,4.80
2010,11,23,14,33,3.10
2010,11,23,14,34,2.40
2010,11,23,14,35,3.10
2010,11,23,14,36,7.20
2010,11,23,14,37,7.30
2010,11,23,14,38,3.30
2010,11,23,14,39,4.70
2010,11,23,14,40,7.20
2010,11,23,14,41,5.90
2010,11,23,14,42,4.90
2010,11,23,14,43,3.20
2010,11,23,14,44,4.00
2010,11,23,14,45,6.70
2010,11,23,14,46,5.60
2010,11,23,14,47,3.70
2010,11,23,14,48,6.50
2010,11,23,14,49,2.60
2010,11,23,14,50,5.90
2010,11,23,14,51,4.00
2010,11,23,14,52,1.80
2010,11,23,14,53,2.20
2010,11,23,14,54,3.70
2010,11,23,14,55,4.20
2010,11,23,14,56,6.20
2010,11,23,14,57,5.90
2010,11,23,14,58,3.40
2010,11,23,14,59,2.30
2010,11,23,15,00,2.00
2010,11,23,15,01,2.50
2010,11,23,15,02,2.70
2010,11,23,15,03,2.90
2010,11,23,15,04,2.40
2010,11,23,15,05,1.90
2010,11,23,15,06,3.70
2010,11,23,15,07,2.70
2010,11,23,15,08,2.10
2010,11,23,15,09,3.00
2010,11,23,15,10,0.50
2010,11,23,15,11,0.30
2010,11,23,15,12,0.20
2010,11,23,15,13,3.70
2010,11,23,15,14,2.50
2010,11,23,15,15,2.40
2010,11,23,15,16,2.00
2010,11,23,15,17,0.60
2010,11,23,15,18,0.10
2010,11,23,15,19,0.00
2010,11,23,15,20,0.10
2010,11,23,15,21,0.10
2010,11,23,15,22,1.00
2010,11,23,15,23,1.30
2010,11,23,15,24,1.30
2010,11,23,15,25,1.20
2010,11,23,15,26,1.00
2010,11,23,15,27,0.50
2010,11,23,15,28,0.40
2010,11,23,15,29,0.50
2010,11,23,15,30,1.60
2010,11,23,15,31,0.50
2010,11,23,15,32,0.60
2010,11,23,15,33,1.00
2010,11,23,15,34,1.50
2010,11,23,15,35,1.30
2010,11,23,15,36,2.60
2010,11,23,15,37,3.00
2010,11,23,15,38,1.10
2010,11,23,15,39,0.10
2010,11,23,15,40,1.60
2010,11,23,15,41,3.30
2010,11,23,15,42,3.30
2010,11,23,15,43,3.10
2010,11,23,15,44,1.50
2010,11,23,15,45,1.30
2010,11,23,15,46,0.70
2010,11,23,15,47,0.10
2010,11,23,15,48,1.20
2010,11,23,15,49,2.00
2010,11,23,15,50,2.70
2010,11,23,15,51,2.20
2010,11,23,15,52,0.80
2010,11,23,15,53,0.10
2010,11,23,15,54,0.00
2010,11,23,15,55,0.90
2010,11,23,15,56,0.70
2010,11,23,15,57,0.10
2010,11,23,15,58,1.00
2010,11,23,15,59,2.60
2010,11,23,16,00,0.30
2010,11,23,16,01,2.20
2010,11,23,16,02,1.30
2010,11,23,16,03,4.30
2010,11,23,16,04,1.70
2010,11,23,16,05,0.50
2010,11,23,16,06,0.00
2010,11,23,16,07,0.50
2010,11,23,16,08,0.10
2010,11,23,16,09,0.10
2010,11,23,16,10,0.00
2010,11,23,16,11,0.20
2010,11,23,16,12,0.10
2010,11,23,16,13,0.00
2010,11,23,16,14,0.60
2010,11,23,16,15,0.00
2010,11,23,16,16,0.00
2010,11,23,16,17,0.10
2010,11,23,16,18,0.00
2010,11,23,16,19,0.10
2010,11,23,16,20,0.40
2010,11,23,16,21,0.20
2010,11,23,16,22,0.00
2010,11,23,16,23,0.00
2010,11,23,16,24,0.00
2010,11,23,16,25,0.10
2010,11,23,16,26,0.70
2010,11,23,16,27,0.00
2010,11,23,16,28,0.00
2010,11,23,16,29,0.00
2010,11,23,16,30,0.00
2010,11,23,16,31,0.10
2010,11,23,16,32,0.40
2010,11,23,16,33,0.60
2010,11,23,16,34,0.30
2010,11,23,16,35,0.40
2010,11,23,16,36,0.40
2010,11,23,16,37,0.20
2010,11,23,16,38,0.00
2010,11,23,16,39,0.00
2010,11,23,16,40,0.00
2010,11,23,16,41,0.00
2010,11,23,16,42,0.00
2010,11,23,16,43,0.00
2010,11,23,16,44,0.00
2010,11,23,16,45,0.00
2010,11,23,16,46,0.00
2010,11,23,16,47,0.00
2010,11,23,16,48,0.00
2010,11,23,16,49,0.00
2010,11,23,16,50,0.00
2010,11,23,16,51,0.10
2010,11,23,16,52,0.00
2010,11,23,16,53,0.00
2010,11,23,16,54,0.00
2010,11,23,16,55,0.20
2010,11,23,16,56,0.70
2010,11,23,16,57,0.10
2010,11,23,16,58,0.20
2010,11,23,16,59,0.00
2010,11,23,17,00,0.00
2010,11,23,17,01,0.00
2010,11,23,17,02,0.00
2010,11,23,17,03,0.00
2010,11,23,17,04,0.00
2010,11,23,17,05,0.00
2010,11,23,17,06,0.00
2010,11,23,17,07,0.00
2010,11,23,17,08,0.00
2010,11,23,17,09,0.00
2010,11,23,17,10,0.00
2010,11,23,17,11,0.00
2010,11,23,17,12,0.00
2010,11,23,17,13,0.00
2010,11,23,17,14,0.00
2010,11,23,17,15,0.00
2010,11,23,17,16,0.00
2010,11,23,17,17,0.00
2010,11,23,17,18,0.00
2010,11,23,17,19,0.00
2010,11,23,17,20,0.00
2010,11,23,17,21,0.00
2010,11,23,17,22,0.00
2010,11,23,17,23,0.00
2010,11,23,17,24,0.00
2010,11,23,17,25,0.00
2010,11,23,17,26,0.00
2010,11,23,17,27,0.00
2010,11,23,17,28,0.00
2010,11,23,17,29,0.00
2010,11,23,17,30,0.00
2010,11,23,17,31,0.00
2010,11,23,17,32,0.30
2010,11,23,17,33,0.20
2010,11,23,17,34,0.10
2010,11,23,17,35,0.00
2010,11,23,17,36,0.10
2010,11,23,17,37,0.00
2010,11,23,17,38,0.00
2010,11,23,17,39,1.20
2010,11,23,17,40,2.20
2010,11,23,17,41,3.10
2010,11,23,17,42,3.10
2010,11,23,17,43,2.40
2010,11,23,17,44,2.20